Location: Taukkyan
(23.1052°N, 94.0030°E)
Time: 11:48:04
(UTC+00:00)

NOSS 3-2 (C) - Pass Details

Date: 06 July 2020
Orbit: 801 x 1412 km, 63.4° (Epoch: 11 August)

Event Time Altitude Azimuth Distance (km) Brightness Sun altitude
Exits shadow 22:11:52 - 191° (S) 3,070 5.7 -11.5°
Reaches altitude 10° 22:13:44 10° 186° (S) 2,367 5.2 -11.1°
Maximum altitude 22:18:53 49° 113° (ESE) 1,054 4.0 -10.1°
Drops below altitude 10° 22:24:25 10° 39° (NE) 2,535 7.0 -9.0°
Sets 22:27:06 0° 34° (NE) 3,551 7.7 -8.4°
